FW2662 Weather Reports


Display with metric or nautical units.
time (UTC)temp
F
wind
direction
speed
MPH
gust
MPH
rain 1hr
in
rain 24hr
in
rain mn
in
humidity
%
barometer
mb
20210924205217 73 113 3.0 0.0 0.00 0.00 0.00 46 987.1
20210924204814 73 113 5.0 0.0 0.00 0.00 0.00 49 987.1
20210924204209 73 90 6.0 0.0 0.00 0.00 0.00 48 987.1
20210924203712 73 135 2.0 0.0 0.00 0.00 0.00 48 987.1
20210924203211 73 113 6.0 0.0 0.00 0.00 0.00 48 987.1
20210924202713 73 90 2.0 0.0 0.00 0.00 0.00 46 987.1
20210924202213 73 293 0.0 0.0 0.00 0.00 0.00 46 987.1
20210924201714 73 113 2.0 0.0 0.00 0.00 0.00 48 987.1
20210924201213 73 203 1.0 0.0 0.00 0.00 0.00 45 987.1
20210924200710 73 113 3.0 0.0 0.00 0.00 0.00 45 987.5
20210924200215 73 113 3.0 0.0 0.00 0.00 0.00 46 987.5
20210924195709 73 90 4.0 0.0 0.00 0.00 0.00 45 987.5
20210924195216 74 113 8.0 0.0 0.00 0.00 0.00 43 987.5
20210924194711 74 68 2.0 0.0 0.00 0.00 0.00 42 987.5
20210924194212 74 113 2.0 0.0 0.00 0.00 0.00 42 987.5
20210924193710 75 113 5.0 0.0 0.00 0.00 0.00 42 987.5
20210924193213 75 0 2.0 0.0 0.00 0.00 0.00 42 987.5
20210924192711 76 23 2.0 0.0 0.00 0.00 0.00 41 987.8
20210924192213 77 113 2.0 0.0 0.00 0.00 0.00 38 987.8
20210924191715 78 68 2.0 0.0 0.00 0.00 0.00 39 987.8
20210924191214 79 113 7.0 0.0 0.00 0.00 0.00 40 987.8
20210924190714 80 45 3.0 0.0 0.00 0.00 0.00 41 987.8
20210924190215 81 135 3.0 0.0 0.00 0.00 0.00 37 987.8
20210924185718 81 90 1.0 0.0 0.00 0.00 0.00 37 988.1
20210924185212 82 45 2.0 0.0 0.00 0.00 0.00 36 988.1
20210924184713 83 68 2.0 0.0 0.00 0.00 0.00 36 988.1
20210924184213 82 338 2.0 0.0 0.00 0.00 0.00 37 988.5
20210924183712 82 68 1.0 0.0 0.00 0.00 0.00 36 988.5
20210924183211 80 113 3.0 0.0 0.00 0.00 0.00 35 988.5
20210924182713 81 113 5.0 0.0 0.00 0.00 0.00 34 988.5
20210924182212 82 68 6.0 0.0 0.00 0.00 0.00 35 988.8
20210924181711 83 90 8.0 0.0 0.00 0.00 0.00 37 988.8
20210924181215 82 68 2.0 0.0 0.00 0.00 0.00 35 988.8
20210924180710 82 45 3.0 0.0 0.00 0.00 0.00 37 988.8
20210924180215 80 135 4.0 0.0 0.00 0.00 0.00 37 988.8
20210924175716 81 113 4.0 0.0 0.00 0.00 0.00 37 988.8
20210924175214 80 113 5.0 0.0 0.00 0.00 0.00 38 989.2
20210924174716 80 90 4.0 0.0 0.00 0.00 0.00 38 989.2
20210924174214 80 135 2.0 0.0 0.00 0.00 0.00 38 989.2
20210924173817 79 113 4.0 0.0 0.00 0.00 0.00 39 989.2
20210924173213 80 113 7.0 0.0 0.00 0.00 0.00 40 989.2
20210924172715 79 135 1.0 0.0 0.00 0.00 0.00 40 989.5
20210924172214 79 113 5.0 0.0 0.00 0.00 0.00 41 989.5
20210924171715 78 90 6.0 0.0 0.00 0.00 0.00 42 989.5
20210924171212 78 113 6.0 0.0 0.00 0.00 0.00 41 989.5
20210924170742 78 90 7.0 0.0 0.00 0.00 0.00 40 989.5
20210924170211 80 90 6.0 0.0 0.00 0.00 0.00 40 989.5
20210924165713 80 113 7.0 0.0 0.00 0.00 0.00 40 989.5
20210924165212 80 270 1.0 0.0 0.00 0.00 0.00 44 989.5
20210924164713 80 113 3.0 0.0 0.00 0.00 0.00 41 989.8
20210924164214 79 45 1.0 0.0 0.00 0.00 0.00 42 989.8
20210924163713 80 113 6.0 0.0 0.00 0.00 0.00 42 989.8
20210924163215 80 45 4.0 0.0 0.00 0.00 0.00 41 989.8
20210924162711 80 90 5.0 0.0 0.00 0.00 0.00 39 989.8
20210924162213 80 68 3.0 0.0 0.00 0.00 0.00 40 989.8
20210924161710 79 293 2.0 0.0 0.00 0.00 0.00 42 989.8
20210924161213 79 90 6.0 0.0 0.00 0.00 0.00 40 989.8
20210924160714 78 68 3.0 0.0 0.00 0.00 0.00 42 989.8
20210924160210 77 45 2.0 0.0 0.00 0.00 0.00 42 989.8
20210924155711 77 113 3.0 0.0 0.00 0.00 0.00 41 990.2
20210924155210 77 90 2.0 0.0 0.00 0.00 0.00 42 990.2
20210924154711 78 113 7.0 0.0 0.00 0.00 0.00 44 990.2
20210924154213 78 113 4.0 0.0 0.00 0.00 0.00 44 990.2
20210924153744 78 113 4.0 0.0 0.00 0.00 0.00 43 990.2
20210924153214 77 270 1.0 0.0 0.00 0.00 0.00 46 990.2
20210924152711 77 113 5.0 0.0 0.00 0.00 0.00 45 990.2
20210924152215 77 113 2.0 0.0 0.00 0.00 0.00 48 990.2
20210924151714 77 68 4.0 0.0 0.00 0.00 0.00 46 990.2
20210924151215 77 90 4.0 0.0 0.00 0.00 0.00 47 990.2
20210924150712 78 113 3.0 0.0 0.00 0.00 0.00 51 990.2
20210924150213 77 113 3.0 0.0 0.00 0.00 0.00 52 989.8
20210924145746 77 45 3.0 0.0 0.00 0.00 0.00 53 989.8
20210924145215 76 113 3.0 0.0 0.00 0.00 0.00 52 989.8
20210924144714 76 113 3.0 0.0 0.00 0.00 0.00 52 989.8
20210924144212 76 113 4.0 0.0 0.00 0.00 0.00 51 989.8
20210924143711 75 113 5.0 0.0 0.00 0.00 0.00 53 989.8
20210924143211 75 113 3.0 0.0 0.00 0.00 0.00 53 989.8
20210924142718 74 113 2.0 0.0 0.00 0.00 0.00 53 989.8
20210924142214 73 68 2.0 0.0 0.00 0.00 0.00 55 989.5
20210924141711 73 113 3.0 0.0 0.00 0.00 0.00 57 989.8
20210924141210 73 113 3.0 0.0 0.00 0.00 0.00 57 989.5
20210924140711 73 113 3.0 0.0 0.00 0.00 0.00 56 989.5
20210924140215 73 113 4.0 0.0 0.00 0.00 0.00 55 989.8
20210924135711 73 113 4.0 0.0 0.00 0.00 0.00 55 989.5
20210924135212 72 113 2.0 0.0 0.00 0.00 0.00 59 989.5
20210924134716 71 23 1.0 0.0 0.00 0.00 0.00 59 989.5
20210924134212 69 293 1.0 0.0 0.00 0.00 0.00 60 989.5
20210924133712 68 90 2.0 0.0 0.00 0.00 0.00 62 989.5
20210924133212 68 90 4.0 0.0 0.00 0.00 0.00 64 989.5
20210924132712 68 90 4.0 0.0 0.00 0.00 0.00 63 989.5
20210924132213 67 113 4.0 0.0 0.00 0.00 0.00 65 989.5
20210924131712 67 113 4.0 0.0 0.00 0.00 0.00 67 989.5
20210924131214 67 113 3.0 0.0 0.00 0.00 0.00 69 989.5
20210924130713 67 90 2.0 0.0 0.00 0.00 0.00 69 989.5
20210924130214 67 113 2.0 0.0 0.00 0.00 0.00 69 989.5
20210924125713 67 113 2.0 0.0 0.00 0.00 0.00 71 989.5
20210924125212 66 113 2.0 0.0 0.00 0.00 0.00 73 989.5
20210924124713 66 113 1.0 0.0 0.00 0.00 0.00 75 989.5
20210924124214 65 113 1.0 0.0 0.00 0.00 0.00 76 989.5
20210924123712 64 90 0.0 0.0 0.00 0.00 0.00 77 989.2
20210924123212 62 90 0.0 0.0 0.00 0.00 0.00 79 989.2
20210924122715 61 90 0.0 0.0 0.00 0.00 0.00 81 989.2
20210924122213 60 113 0.0 0.0 0.00 0.00 0.00 82 989.2
20210924121712 59 45 0.0 0.0 0.00 0.00 0.00 84 989.2
20210924121213 57 45 0.0 0.0 0.00 0.00 0.00 85 989.2
20210924120714 56 45 0.0 0.0 0.00 0.00 0.00 86 988.8
20210924120212 55 45 0.0 0.0 0.00 0.00 0.00 88 988.8
20210924115714 53 45 0.0 0.0 0.00 0.00 0.00 89 988.8
20210924115210 52 45 0.0 0.0 0.00 0.00 0.00 89 988.8
20210924114712 51 45 0.0 0.0 0.00 0.00 0.00 90 988.8
20210924114212 51 0 0.0 0.0 0.00 0.00 0.00 88 988.8
20210924113711 51 315 1.0 0.0 0.00 0.00 0.00 88 988.8
20210924113210 51 338 0.0 0.0 0.00 0.00 0.00 88 988.8
20210924112713 51 338 0.0 0.0 0.00 0.00 0.00 89 988.8
20210924112214 51 338 0.0 0.0 0.00 0.00 0.00 89 988.8
20210924111712 51 0 0.0 0.0 0.00 0.00 0.00 88 988.8
20210924111214 51 338 0.0 0.0 0.00 0.00 0.00 88 988.8
20210924110713 51 0 0.0 0.0 0.00 0.00 0.00 88 988.8
20210924110215 51 338 0.0 0.0 0.00 0.00 0.00 88 988.5
20210924105712 51 338 0.0 0.0 0.00 0.00 0.00 88 988.5
20210924105210 51 338 0.0 0.0 0.00 0.00 0.00 88 988.5
20210924104714 51 315 0.0 0.0 0.00 0.00 0.00 88 988.5
20210924104212 52 315 0.0 0.0 0.00 0.00 0.00 88 988.5
20210924103712 52 315 0.0 0.0 0.00 0.00 0.00 89 988.5
20210924103214 52 315 0.0 0.0 0.00 0.00 0.00 89 988.1
20210924102710 52 315 0.0 0.0 0.00 0.00 0.00 88 988.1
20210924102216 52 270 0.0 0.0 0.00 0.00 0.00 88 988.1
20210924101713 52 270 0.0 0.0 0.00 0.00 0.00 88 988.1
20210924101212 52 293 0.0 0.0 0.00 0.00 0.00 86 988.1
20210924100713 53 293 0.0 0.0 0.00 0.00 0.00 86 988.1
20210924100214 53 315 0.0 0.0 0.00 0.00 0.00 86 988.1
20210924095712 53 338 0.0 0.0 0.00 0.00 0.00 86 988.1
20210924095244 53 338 1.0 0.0 0.00 0.00 0.00 86 987.8
20210924094711 53 293 0.0 0.0 0.00 0.00 0.00 86 987.8
20210924094214 53 293 0.0 0.0 0.00 0.00 0.00 85 987.8
20210924093711 53 293 0.0 0.0 0.00 0.00 0.00 85 987.8
20210924093214 53 270 0.0 0.0 0.00 0.00 0.00 85 987.8
20210924084210 54 270 0.0 0.0 0.00 0.00 0.00 80 987.5
20210924083711 54 338 0.0 0.0 0.00 0.00 0.00 80 987.5
20210924083210 54 293 0.0 0.0 0.00 0.00 0.00 80 987.5
20210924082710 55 0 0.0 0.0 0.00 0.00 0.00 80 987.5
20210924082211 55 0 0.0 0.0 0.00 0.00 0.00 80 987.5
20210924081711 55 0 0.0 0.0 0.00 0.00 0.00 80 987.5
20210924081210 55 293 0.0 0.0 0.00 0.00 0.00 80 987.5
20210924080714 55 315 0.0 0.0 0.00 0.00 0.00 80 987.5
20210924080210 55 338 0.0 0.0 0.00 0.00 0.00 81 987.5
20210924075713 55 293 0.0 0.0 0.00 0.00 0.00 81 987.5
20210924075212 55 293 0.0 0.0 0.00 0.00 0.00 81 987.5
20210924074710 55 270 2.0 0.0 0.00 0.00 0.00 80 987.5
20210924074212 55 338 0.0 0.0 0.00 0.00 0.00 80 987.5
20210924073714 55 293 0.0 0.0 0.00 0.00 0.00 80 987.5
20210924073213 55 338 0.0 0.0 0.00 0.00 0.00 80 987.5
20210924072811 55 0 0.0 0.0 0.00 0.00 0.00 80 987.5
20210924072210 55 315 0.0 0.0 0.00 0.00 0.00 80 987.5
20210924071713 55 338 0.0 0.0 0.00 0.00 0.00 80 987.5
20210924071214 55 0 1.0 0.0 0.00 0.00 0.00 80 987.5
20210924070711 55 338 1.0 0.0 0.00 0.00 0.00 80 987.5
20210924070210 55 0 0.0 0.0 0.00 0.00 0.00 80 987.5
20210924065713 55 23 2.0 0.0 0.00 0.00 0.00 80 987.5
20210924065212 55 338 1.0 0.0 0.00 0.00 0.00 80 987.5
20210924064743 55 338 0.0 0.0 0.00 0.00 0.00 81 987.5
20210924064214 55 0 0.0 0.0 0.00 0.00 0.00 81 987.5
20210924063742 55 315 1.0 0.0 0.00 0.00 0.00 81 987.5
20210924063217 55 0 0.0 0.0 0.00 0.00 0.00 81 987.5
20210924062711 55 315 1.0 0.0 0.00 0.00 0.00 81 987.5
20210924062212 55 338 0.0 0.0 0.00 0.00 0.00 81 987.5
20210924061714 55 0 0.0 0.0 0.00 0.00 0.00 81 987.5
20210924061213 55 293 0.0 0.0 0.00 0.00 0.00 81 987.5
20210924060713 55 293 0.0 0.0 0.00 0.00 0.00 81 987.5
20210924060213 55 338 0.0 0.0 0.00 0.00 0.00 81 987.8
20210924055712 55 0 0.0 0.0 0.00 0.00 0.00 81 987.8
20210924055212 55 338 1.0 0.0 0.00 0.00 0.00 81 987.8
20210924054712 55 0 0.0 0.0 0.00 0.00 0.00 81 987.8
20210924054211 55 315 0.0 0.0 0.00 0.00 0.00 81 987.8
20210924053711 55 0 0.0 0.0 0.00 0.00 0.00 80 987.8
20210924053209 55 158 1.0 0.0 0.00 0.00 0.00 81 987.8
20210924052713 55 293 0.0 0.0 0.00 0.00 0.00 80 987.8
20210924052210 56 338 0.0 0.0 0.00 0.00 0.00 80 988.1
20210924051713 56 293 0.0 0.0 0.00 0.00 0.00 79 987.8
20210924051210 56 338 0.0 0.0 0.00 0.00 0.00 79 987.8
20210924050712 56 338 0.0 0.0 0.00 0.00 0.00 79 988.1
20210924050212 56 338 0.0 0.0 0.00 0.00 0.00 79 987.8
20210924045713 56 338 0.0 0.0 0.00 0.00 0.00 79 987.8
20210924045212 56 338 0.0 0.0 0.00 0.00 0.00 79 987.8
20210924044712 56 338 0.0 0.0 0.00 0.00 0.00 79 988.1
20210924044213 56 315 0.0 0.0 0.00 0.00 0.00 79 987.8
20210924043714 56 315 0.0 0.0 0.00 0.00 0.00 79 987.8
20210924043209 56 338 0.0 0.0 0.00 0.00 0.00 79 987.8
20210924042712 56 293 0.0 0.0 0.00 0.00 0.00 79 988.1
20210924042213 56 0 0.0 0.0 0.00 0.00 0.00 79 987.8
20210924041711 57 68 0.0 0.0 0.00 0.00 0.00 79 987.8
20210924041214 57 68 0.0 0.0 0.00 0.00 0.00 78 987.8
20210924040714 57 338 0.0 0.0 0.00 0.00 0.00 77 987.8
20210924040212 57 338 0.0 0.0 0.00 0.00 0.00 77 987.8
20210924035709 57 293 0.0 0.0 0.00 0.00 0.00 77 987.5
20210924035211 57 338 0.0 0.0 0.00 0.00 0.00 79 987.8
20210924034715 58 270 2.0 0.0 0.00 0.00 0.00 79 987.5
20210924034214 58 315 3.0 0.0 0.00 0.00 0.00 79 987.5
20210924033715 58 270 2.0 0.0 0.00 0.00 0.00 77 987.5
20210924033212 58 338 2.0 0.0 0.00 0.00 0.00 79 987.5
20210924032713 58 270 2.0 0.0 0.00 0.00 0.00 78 987.5
20210924032211 58 270 2.0 0.0 0.00 0.00 0.00 77 987.5
20210924031715 58 270 3.0 0.0 0.00 0.00 0.00 77 987.5
20210924031317 58 293 3.0 0.0 0.00 0.00 0.00 76 987.5
20210924030713 58 270 2.0 0.0 0.00 0.00 0.00 78 987.1
20210924030213 58 270 3.0 0.0 0.00 0.00 0.00 77 987.1
20210924025713 58 270 2.0 0.0 0.00 0.00 0.00 77 987.1
20210924025212 57 270 1.0 0.0 0.00 0.00 0.00 77 987.1
20210924024713 57 270 2.0 0.0 0.00 0.00 0.00 78 987.1
20210924024211 57 270 1.0 0.0 0.00 0.00 0.00 78 987.1
20210924023712 57 293 2.0 0.0 0.00 0.00 0.00 79 987.1
20210924023214 57 270 2.0 0.0 0.00 0.00 0.00 79 987.1
20210924022714 57 270 2.0 0.0 0.00 0.00 0.00 80 987.1
20210924022212 57 270 2.0 0.0 0.00 0.00 0.00 80 987.1
20210924021712 57 270 1.0 0.0 0.00 0.00 0.00 80 987.1
20210924021211 57 270 2.0 0.0 0.00 0.00 0.00 81 987.1
20210924020710 57 270 3.0 0.0 0.00 0.00 0.00 81 987.1
20210924020217 57 270 2.0 0.0 0.00 0.00 0.00 81 987.1
20210924015712 57 270 2.0 0.0 0.00 0.00 0.00 81 987.1
20210924015210 58 270 2.0 0.0 0.00 0.00 0.00 80 987.1
20210924014710 58 293 2.0 0.0 0.00 0.00 0.00 80 987.1
20210924014212 58 270 2.0 0.0 0.00 0.00 0.00 80 987.1
20210924013712 58 270 2.0 0.0 0.00 0.00 0.00 79 987.1
20210924013213 58 293 2.0 0.0 0.00 0.00 0.00 79 986.8
20210924012711 58 293 2.0 0.0 0.00 0.00 0.00 78 986.8
20210924012213 59 293 2.0 0.0 0.00 0.00 0.00 78 987.1
20210924011711 59 293 2.0 0.0 0.00 0.00 0.00 77 986.8
20210924011214 59 293 2.0 0.0 0.00 0.00 0.00 77 986.8
20210924010711 59 270 1.0 0.0 0.00 0.00 0.00 77 986.8
20210924010216 59 270 2.0 0.0 0.00 0.00 0.00 77 986.8
20210924005712 59 293 2.0 0.0 0.00 0.00 0.00 75 986.8
20210924005210 59 270 3.0 0.0 0.00 0.00 0.00 75 986.8
20210924004712 60 270 3.0 0.0 0.00 0.00 0.00 75 986.5
20210924004212 60 270 2.0 0.0 0.00 0.00 0.00 74 986.5
20210924003715 60 270 2.0 0.0 0.00 0.00 0.00 74 986.5
20210924003212 60 293 3.0 0.0 0.00 0.00 0.00 75 986.5
20210924002709 60 293 3.0 0.0 0.00 0.00 0.00 74 986.1
20210924002210 60 293 3.0 0.0 0.00 0.00 0.00 73 986.5
20210924001711 60 293 1.0 0.0 0.00 0.00 0.00 73 986.5
20210924001211 60 270 3.0 0.0 0.00 0.00 0.00 73 986.5
20210924000711 60 293 3.0 0.0 0.00 0.00 0.00 73 986.1
20210924000213 60 293 3.0 0.0 0.00 0.00 0.00 73 986.1
20210923235712 60 270 2.0 0.0 0.00 0.00 0.00 73 986.1
20210923235214 61 270 2.0 0.0 0.00 0.00 0.00 73 986.1
20210923234714 61 270 3.0 0.0 0.00 0.00 0.00 72 986.1
20210923234212 61 270 2.0 0.0 0.00 0.00 0.00 70 986.1
20210923233710 61 270 2.0 0.0 0.00 0.00 0.00 69 986.1
20210923233214 62 293 1.0 0.0 0.00 0.00 0.00 68 986.1
20210923232716 62 270 1.0 0.0 0.00 0.00 0.00 67 986.1
20210923232212 62 270 2.0 0.0 0.00 0.00 0.00 67 986.1
20210923231713 63 270 2.0 0.0 0.00 0.00 0.00 66 986.1
20210923231210 63 293 2.0 0.0 0.00 0.00 0.00 64 986.1
20210923230712 63 270 1.0 0.0 0.00 0.00 0.00 63 986.1
20210923230213 64 270 1.0 0.0 0.00 0.00 0.00 62 986.1
20210923225713 64 293 2.0 0.0 0.00 0.00 0.00 61 986.1
20210923225213 64 338 0.0 0.0 0.00 0.00 0.00 60 986.1
20210923224712 65 338 0.0 0.0 0.00 0.00 0.00 59 986.1
20210923224228 65 0 0.0 0.0 0.00 0.00 0.00 58 986.1
20210923223714 66 293 0.0 0.0 0.00 0.00 0.00 57 986.1
20210923223210 66 0 1.0 0.0 0.00 0.00 0.00 57 985.8
20210923222713 66 113 0.0 0.0 0.00 0.00 0.00 57 985.8
20210923222215 67 338 1.0 0.0 0.00 0.00 0.00 57 985.8
20210923221711 67 270 2.0 0.0 0.00 0.00 0.00 54 985.8
20210923221216 67 90 2.0 0.0 0.00 0.00 0.00 56 985.8
20210923220715 67 68 2.0 0.0 0.00 0.00 0.00 54 985.8
20210923220214 67 23 1.0 0.0 0.00 0.00 0.00 57 985.8
20210923215713 68 68 2.0 0.0 0.00 0.00 0.00 54 985.8
20210923215214 68 90 2.0 0.0 0.00 0.00 0.00 52 985.8
20210923214711 68 270 0.0 0.0 0.00 0.00 0.00 52 985.8
20210923214213 68 0 1.0 0.0 0.00 0.00 0.00 52 985.8
20210923213710 68 113 2.0 0.0 0.00 0.00 0.00 52 985.8
20210923213216 69 45 4.0 0.0 0.00 0.00 0.00 51 985.8
20210923212713 69 135 3.0 0.0 0.00 0.00 0.00 52 985.8
20210923212212 69 90 1.0 0.0 0.00 0.00 0.00 48 985.8
20210923211711 69 90 1.0 0.0 0.00 0.00 0.00 48 985.4
20210923211211 70 68 2.0 0.0 0.00 0.00 0.00 49 985.8
20210923210714 70 270 2.0 0.0 0.00 0.00 0.00 50 985.4
20210923210210 70 45 2.0 0.0 0.00 0.00 0.00 51 985.4
20210923205713 70 293 1.0 0.0 0.00 0.00 0.00 50 985.4